User: anonymous   Login
Location: Deuil
(48.9767°N, 2.3272°E)
Time: 23:35:10
(UTC+00:00)
Language:

NOAA 17 DEB - Orbit

View from above orbital plane
View from above orbital plane
View from above satellite
View from above satellite

Ground track
Ground track

The orbit data is extracted from the following two-line orbital elements,

1 48723U 02032BG  22222.32627129  .00001922  00000-0  84669-3 0  9993
2 48723  98.7256 169.1844 0035206  74.0877 286.4177 14.24257705 72567
Epoch (UTC): 10 August 2022 07:49:49
Eccentricity: 0.0035206
inclination: 98.7256°
perigee height: 785 km
apogee height: 836 km
right ascension of ascending node: 169.1844°
argument of perigee: 74.0877°
revolutions per day: 14.24257705
mean anomaly at epoch: 286.4177°
orbit number at epoch: 7256

The dashed part of the orbit path shows where the satellite is in the earth's shadow,  

DLR